When you browse on this site, cookies collect data to enhance your experience and personalize the content and advertising you see.
Visit our Privacy Policy to learn more. By continuing to use the site, you agree to this use of cookies and data.
  • In Hungary
  • List of Countries
  • For 7 days
  • Water Temperature
  • Satellite Maps
  • Weather Map
  • News
  • Weather Widgets
  • user-avatar
    Login

    Hourly Weather Varnetresk

    Today, 21 March, Thursday

    Time Temperature Precipitation Wind Pressure Humidity
    00:00 -7°C° 0.1 mm 4 mps 681 mmHg 93%
    01:00 -6°C° 0 mm 3 mps 681 mmHg 95%
    02:00 -6°C° 0.1 mm 2 mps 680 mmHg 95%
    03:00 -6°C° 0.1 mm 2 mps 680 mmHg 95%
    04:00 -7°C° 0.1 mm 2 mps 679 mmHg 95%
    05:00 -7°C° 0.7 mm 3 mps 678 mmHg 95%
    06:00 -6°C° 0.7 mm 3 mps 677 mmHg 95%
    07:00 -7°C° 0.7 mm 4 mps 676 mmHg 95%
    08:00 -5°C° 1.2 mm 6 mps 676 mmHg 95%
    09:00 -5°C° 1.2 mm 8 mps 675 mmHg 96%
    10:00 -4°C° 1.2 mm 10 mps 675 mmHg 96%
    11:00 -6°C° 0.7 mm 12 mps 676 mmHg 93%
    12:00 -7°C° 0.7 mm 13 mps 677 mmHg 90%
    13:00 -9°C° 0.7 mm 15 mps 678 mmHg 87%
    14:00 -10°C° 0.3 mm 14 mps 680 mmHg 87%
    15:00 -11°C° 0.3 mm 13 mps 681 mmHg 87%
    16:00 -11°C° 0.3 mm 12 mps 683 mmHg 87%
    17:00 -11°C° 0.3 mm 11 mps 683 mmHg 88%
    18:00 -12°C° 0.3 mm 10 mps 684 mmHg 88%
    19:00 -11°C° 0.3 mm 9 mps 685 mmHg 89%
    20:00 -11°C° 0.2 mm 8 mps 686 mmHg 89%
    21:00 -11°C° 0.2 mm 8 mps 686 mmHg 88%
    22:00 -11°C° 0.2 mm 7 mps 687 mmHg 87%
    23:00 -10°C° 0.1 mm 6 mps 687 mmHg 89%

    Tomorrow, 22 March, Friday

    Time Temperature Precipitation Wind Pressure Humidity
    00:00 -10°C° 0.1 mm 4 mps 688 mmHg 90%
    01:00 -9°C° 0.1 mm 3 mps 688 mmHg 91%
    02:00 -10°C° 0.1 mm 3 mps 688 mmHg 91%
    03:00 -10°C° 0.1 mm 3 mps 688 mmHg 91%
    04:00 -9°C° 0.1 mm 2 mps 688 mmHg 91%
    05:00 -9°C° 0.1 mm 2 mps 688 mmHg 91%
    06:00 -9°C° 0.1 mm 2 mps 688 mmHg 92%
    07:00 -9°C° 0.1 mm 2 mps 688 mmHg 93%
    08:00 -8°C° 0.1 mm 3 mps 687 mmHg 92%
    09:00 -7°C° 0.1 mm 3 mps 687 mmHg 91%
    10:00 -7°C° 0.1 mm 4 mps 687 mmHg 91%
    11:00 -6°C° 0.3 mm 5 mps 686 mmHg 90%
    12:00 -6°C° 0.3 mm 6 mps 685 mmHg 89%
    13:00 -6°C° 0.3 mm 7 mps 683 mmHg 88%
    14:00 -5°C° 1 mm 6 mps 682 mmHg 90%
    15:00 -5°C° 1 mm 6 mps 681 mmHg 92%
    16:00 -5°C° 1 mm 6 mps 679 mmHg 93%
    17:00 -5°C° 1 mm 6 mps 678 mmHg 93%
    18:00 -4°C° 1 mm 6 mps 677 mmHg 92%
    19:00 -2°C° 1 mm 5 mps 676 mmHg 91%
    20:00 -3°C° 0.9 mm 6 mps 675 mmHg 93%
    21:00 -2°C° 0.9 mm 6 mps 675 mmHg 95%
    22:00 -2°C° 0.9 mm 7 mps 674 mmHg 97%
    23:00 -3°C° 0.3 mm 7 mps 674 mmHg 95%

    Day after tomorrow, 23 March, Saturday

    Time Temperature Precipitation Wind Pressure Humidity
    00:00 -4°C° 0.3 mm 8 mps 673 mmHg 93%
    01:00 -5°C° 0.3 mm 9 mps 672 mmHg 91%
    02:00 -6°C° 0.2 mm 11 mps 672 mmHg 88%
    03:00 -7°C° 0.2 mm 12 mps 671 mmHg 86%
    04:00 -8°C° 0.2 mm 14 mps 670 mmHg 83%
    05:00 -9°C° 0.3 mm 14 mps 670 mmHg 83%
    06:00 -10°C° 0.3 mm 14 mps 669 mmHg 84%
    07:00 -10°C° 0.3 mm 14 mps 669 mmHg 84%
    08:00 -10°C° 0.9 mm 15 mps 669 mmHg 84%
    09:00 -11°C° 0.9 mm 16 mps 668 mmHg 84%
    10:00 -11°C° 0.9 mm 17 mps 668 mmHg 84%
    11:00 -11°C° 0.6 mm 17 mps 668 mmHg 86%
    12:00 -12°C° 0.6 mm 18 mps 669 mmHg 88%
    13:00 -12°C° 0.6 mm 18 mps 669 mmHg 90%
    14:00 -12°C° 0.9 mm 17 mps 670 mmHg 90%
    15:00 -13°C° 0.9 mm 16 mps 671 mmHg 91%
    16:00 -13°C° 0.9 mm 16 mps 672 mmHg 91%
    17:00 -13°C° 0.5 mm 15 mps 672 mmHg 90%
    18:00 -14°C° 0.5 mm 14 mps 673 mmHg 90%
    19:00 -14°C° 0.5 mm 14 mps 674 mmHg 89%
    20:00 -14°C° 0.4 mm 13 mps 674 mmHg 90%
    21:00 -14°C° 0.4 mm 13 mps 675 mmHg 90%
    22:00 -15°C° 0.4 mm 13 mps 676 mmHg 90%
    23:00 -14°C° 0.4 mm 13 mps 677 mmHg 90%

    24 March, Sunday

    Time Temperature Precipitation Wind Pressure Humidity
    00:00 -13°C° 0.4 mm 12 mps 678 mmHg 89%
    01:00 -13°C° 0.4 mm 12 mps 679 mmHg 89%
    02:00 -13°C° 0.2 mm 10 mps 680 mmHg 89%
    03:00 -12°C° 0.2 mm 9 mps 680 mmHg 89%
    04:00 -12°C° 0.2 mm 8 mps 681 mmHg 89%
    05:00 -12°C° 0.1 mm 6 mps 681 mmHg 90%
    06:00 -11°C° 0.1 mm 4 mps 681 mmHg 91%
    07:00 -12°C° 0.1 mm 3 mps 680 mmHg 91%
    08:00 -10°C° 0 mm 3 mps 680 mmHg 91%
    09:00 -10°C° 0 mm 3 mps 680 mmHg 90%
    10:00 -9°C° 0 mm 3 mps 680 mmHg 90%
    11:00 -9°C° 1 mm 3 mps 679 mmHg 91%
    12:00 -8°C° 1 mm 3 mps 678 mmHg 93%
    13:00 -8°C° 1 mm 3 mps 678 mmHg 95%
    14:00 -7°C° 1.8 mm 3 mps 677 mmHg 95%
    15:00 -6°C° 1.8 mm 3 mps 677 mmHg 96%
    16:00 -5°C° 1.8 mm 4 mps 676 mmHg 96%
    17:00 -5°C° 1.5 mm 4 mps 676 mmHg 94%
    18:00 -6°C° 1.5 mm 5 mps 675 mmHg 92%
    19:00 -6°C° 1.5 mm 6 mps 674 mmHg 90%
    20:00 -6°C° 0.1 mm 5 mps 673 mmHg 89%
    21:00 -7°C° 0.1 mm 4 mps 673 mmHg 88%
    22:00 -6°C° 0.1 mm 3 mps 672 mmHg 87%
    23:00 -6°C° 0.5 mm 3 mps 672 mmHg 89%

    25 March, Monday

    Time Temperature Precipitation Wind Pressure Humidity
    00:00 -6°C° 0.5 mm 2 mps 672 mmHg 92%
    01:00 -6°C° 0.5 mm 2 mps 672 mmHg 95%
    02:00 -6°C° 0.7 mm 2 mps 672 mmHg 96%
    03:00 -6°C° 0.7 mm 2 mps 672 mmHg 96%
    04:00 -6°C° 0.7 mm 2 mps 672 mmHg 96%
    05:00 -6°C° 0.3 mm 2 mps 672 mmHg 95%
    06:00 -7°C° 0.3 mm 2 mps 672 mmHg 93%
    07:00 -6°C° 0.3 mm 1 mps 672 mmHg 92%
    08:00 -7°C° 0.1 mm 2 mps 673 mmHg 91%
    09:00 -6°C° 0.1 mm 2 mps 673 mmHg 91%
    10:00 -6°C° 0.1 mm 2 mps 674 mmHg 90%
    11:00 -5°C° 0.2 mm 2 mps 674 mmHg 90%
    12:00 -5°C° 0.2 mm 2 mps 675 mmHg 90%
    13:00 -6°C° 0.2 mm 3 mps 675 mmHg 90%
    14:00 -6°C° 0.3 mm 3 mps 676 mmHg 91%
    15:00 -5°C° 0.3 mm 3 mps 677 mmHg 92%
    16:00 -5°C° 0.3 mm 3 mps 678 mmHg 92%
    17:00 -6°C° 0.4 mm 3 mps 679 mmHg 94%
    18:00 -5°C° 0.4 mm 2 mps 680 mmHg 95%
    19:00 -5°C° 0.4 mm 2 mps 681 mmHg 96%
    20:00 -8°C° 0 mm 3 mps 681 mmHg 95%
    21:00 -9°C° 0 mm 3 mps 682 mmHg 94%
    22:00 -10°C° 0 mm 3 mps 683 mmHg 94%
    23:00 -12°C° 0 mm 3 mps 684 mmHg 93%

    26 March, Tuesday

    Time Temperature Precipitation Wind Pressure Humidity
    00:00 -13°C° 0 mm 3 mps 684 mmHg 93%
    01:00 -14°C° 0 mm 3 mps 685 mmHg 92%
    02:00 -14°C° 0 mm 3 mps 686 mmHg 93%
    03:00 -15°C° 0 mm 3 mps 686 mmHg 94%
    04:00 -15°C° 0 mm 3 mps 687 mmHg 94%
    05:00 -14°C° 0 mm 2 mps 687 mmHg 94%
    06:00 -15°C° 0 mm 2 mps 688 mmHg 94%
    07:00 -15°C° 0 mm 2 mps 688 mmHg 94%
    08:00 -13°C° 0 mm 2 mps 688 mmHg 92%
    09:00 -12°C° 0 mm 2 mps 689 mmHg 90%
    10:00 -9°C° 0 mm 2 mps 689 mmHg 88%
    11:00 -9°C° 0 mm 2 mps 690 mmHg 85%
    12:00 -8°C° 0 mm 2 mps 690 mmHg 83%
    13:00 -8°C° 0 mm 2 mps 690 mmHg 80%
    14:00 -8°C° 0 mm 2 mps 689 mmHg 81%
    15:00 -8°C° 0 mm 2 mps 689 mmHg 82%
    16:00 -8°C° 0 mm 2 mps 689 mmHg 83%
    17:00 -8°C° 0.1 mm 2 mps 688 mmHg 86%
    18:00 -9°C° 0.1 mm 2 mps 688 mmHg 88%
    19:00 -10°C° 0.1 mm 2 mps 687 mmHg 91%
    20:00 -10°C° 0.2 mm 2 mps 686 mmHg 92%
    21:00 -12°C° 0.2 mm 3 mps 686 mmHg 93%
    22:00 -10°C° 0.2 mm 3 mps 685 mmHg 93%
    23:00 -10°C° 1.2 mm 3 mps 684 mmHg 94%
    Show more